Location: ???????????
(55.5758°N, 38.4970°E)
Time: 17:22:23
(UTC+00:00)

Cosmos 2297 - Pass Details

Date: 15 November 2025
Orbit: 836 x 856 km, 71.0° (Epoch: 14 December)

Event Time Altitude Azimuth Distance (km) Brightness Sun altitude
Exits shadow 01:53:56 34° 341° (NNW) 1,362 4.6 -26.0°
Maximum altitude 01:56:22 64° 51° (NE) 931 4.0 -25.6°
Drops below altitude 10° 02:01:57 10° 133° (SE) 2,450 6.6 -24.8°
Sets 02:04:24 0° 136° (SE) 3,380 7.4 -24.5°
